ONEWEB-0524 (54142 NORAD) Tracking and Keplerian Element Data

This shows tracking and keplerian element data for the satellite.

Feedback or suggestion? Click here.




ElementValue
Catalog54142
NameONEWEB-0524
Epoch Orbit527
Epoch Day325.33334491
Epoch Year2022
RAAN206.9676
Inclination87.0931
Eccentricity0.0009902
Argument of Perigee184.8082
Mean Anonmoly167.3605
Mean Motion14.91793109
Decay Rate-0.00051507
L11 54142U 22138AF 22325.33334491 -.00051507 00000+0 -51524-2 0 9994
L22 54142 87.0931 206.9676 0009902 184.8082 167.3605 14.91793109 5279



Live tracking and technical data element details for ONEWEB-0524 (NORAD 54142). ONEWEB-0524 can be tracked NOW for your location showing map with azimuth and elevation plus other details from your city location.







IsCatalogInMostPopularTable: catalog: 54142, numindb: 5
Update: records affected: 1



GetName: 54142 ONEWEB-0524

Hit Count: updated at: Sun, 04 Dec 2022 21:29:00 GMT